World > North America > United States > Washington

Fobes Hill, Washington Regional Weather

Lat: 47.19N, Lon: 122.19W
Wx Zone: WAZ555Web Search

Ads allow us to feed your daily addiction for the world's greatest weather information. We're determined to offer quality sponsors, in the least annoying way possible.

Feedback


°F Click to change Fobes Hill hourly weather to Imperial units.Click to change Fobes Hill hourly weather to Metric units. °C
Fobes Hill Weather Map
UTC Time: 4/15/2021, 22:47
Your Time:

Fobes Hill, WA Regional Weather

Expires:202104152300;;610844
ASUS46 KSEW 152220
RWRWA 

WASHINGTON REGIONAL WEATHER ROUNDUP
NATIONAL WEATHER SERVICE SEATTLE WA
300 PM PDT THU APR 15 2021

NOTE:"FAIR" INDICATES FEW OR NO CLOUDS BELOW 12,000 FEET WITH NO 
SIGNIFICANT WEATHER AND/OR OBSTRUCTIONS TO VISIBILITY.


WAZ507-509-555>559-152300-
SEATTLE, TACOMA, EVERETT, AND VICINITY
  
CITY           SKY/WX    TMP DP  RH WIND       PRES   REMARKS
EVERETT        SUNNY     67  37  33 N10       30.12F                  
BOEING FIELD   SUNNY     71  34  25 NW9       30.09F                  
RENTON           N/A    N/A N/A N/A MISG      30.08                   
SEATAC AIRPORT SUNNY     73  37  27 NW12      30.09F                  
JBLM-MCCHORD   SUNNY     74  33  22 N13       30.08F                  
PUYALLUP       FAIR      73  32  21 NW9       30.08S                  
BREMERTON      SUNNY     74  32  21 NE10G17   30.11S                  
JBLM-FT LEWIS  SUNNY     74  30  20 NW8       30.07F                  
TACOMA NARROWS SUNNY     70  29  21 N12       30.09F                  
$$
 

SKY/WX - Weather  TMP - Temperature  DP - Dew Point  RH - Relative Humidity
WIND - Wind Direction/Speed PRES - Barometric Pressure VSB - Visibility
WCI - Wind Chill Index E13G22 Wind - East Wind 13 mph/Gusts of 22 mph